Bradshaw AFB, HI

5:32 AM HST on November 12, 2019 (GMT -1000)
Bradshaw Army Air Field

Weather History for PHSF - September, 2019

Change the Weather History Date:

Wednesday, September 11, 2019

  Actual Average Record
Temperature  
Mean Temperature 62 °F -  
Max Temperature 76 °F 70 °F 77 °F (2001)
Min Temperature 47 °F 49 °F 46 °F (1998)
Degree Days  
Heating Degree Days 4    
Growing Degree Days 12 (Base 50)    
Moisture  
Dew Point 55 °F    
Average Humidity 76    
Maximum Humidity 100    
Minimum Humidity 42    
Precipitation  
Precipitation 0.00 in - - ()
Sea Level Pressure  
Sea Level Pressure 29.97 in    
Wind  
Wind Speed 4 mph (SSW)    
Max Wind Speed 12 mph    
Max Gust Speed 18 mph    
Visibility 9 miles    
Events Rain    
Averages and records for this station are not official NWS values.
T = Trace of Precipitation, MM = Missing Value Source: NWS Daily Summary

Daily Weather History Graph

Daily Weather History Graph

Search for Another Location

Airport or City:

Astronomy

Sep. 11, 2019 Rise Set
Actual Time 6:08 AM HST 6:28 PM HST
Civil Twilight 5:46 AM HST 6:50 PM HST
Nautical Twilight 5:21 AM HST 7:16 PM HST
Astronomical Twilight 4:55 AM HST 7:42 PM HST
Moon 5:23 PM HST (9/11) 4:09 AM HST (9/11)
Length of Visible Light 13h 03m
Length of Day
12h 19m
Waxing Gibbous, 95% of the Moon is Illuminated
Sep 11
Waxing Gibbous
Sep 13
Full
Sep 21
Last Quarter
Sep 28
New
Oct 5
First Quarter

Hourly Weather History & Observations

Time (HST) Temp. Dew Point Humidity Pressure Visibility Wind Dir Wind Speed Gust Speed Precip Events Conditions
12:56 AM 51.8 °F 39.0 °F 62% 29.95 in 10.0 mi SE 4.6 mph - N/A   Clear
1:56 AM 50.0 °F 40.8 °F 71% 29.95 in 10.0 mi SE 3.5 mph - N/A   Clear
2:56 AM 48.9 °F 40.1 °F 72% 29.96 in 10.0 mi Calm Calm - N/A   Clear
3:56 AM 47.5 °F 39.7 °F 75% 29.96 in 10.0 mi SE 4.6 mph - N/A   Clear
4:56 AM 48.0 °F 39.2 °F 72% 29.98 in 10.0 mi SE 5.8 mph - N/A   Clear
5:56 AM 48.0 °F 40.1 °F 74% 30.00 in 10.0 mi SE 4.6 mph - N/A   Clear
6:56 AM 53.6 °F 39.7 °F 59% 30.01 in 10.0 mi SE 3.5 mph - N/A   Clear
7:56 AM 64.8 °F 45.5 °F 50% 30.00 in 10.0 mi South 4.6 mph - N/A   Partly Cloudy
8:56 AM 68.9 °F 49.8 °F 51% 30.02 in 10.0 mi SSW 3.5 mph - N/A   Clear
9:56 AM 73.0 °F 50.2 °F 44% 29.98 in 10.0 mi SSW 8.1 mph - N/A   Clear
10:56 AM 74.7 °F 50.4 °F 42% 29.96 in 10.0 mi SW 9.2 mph - N/A   Partly Cloudy
11:56 AM 76.8 °F 54.5 °F 46% 29.94 in 10.0 mi West 8.1 mph - N/A   Clear
12:56 PM 74.5 °F 59.4 °F 59% 29.92 in 10.0 mi WSW 10.4 mph 16.1 mph N/A   Partly Cloudy
1:21 PM 73.4 °F 59.0 °F 61% 29.93 in 10.0 mi WSW 11.5 mph 18.4 mph N/A   Mostly Cloudy
1:26 PM 73.4 °F 60.8 °F 65% 29.92 in 10.0 mi WSW 11.5 mph 16.1 mph N/A   Mostly Cloudy
1:36 PM 73.4 °F 59.0 °F 61% 29.92 in 10.0 mi WSW 10.4 mph - N/A   Mostly Cloudy
1:53 PM 69.8 °F 59.0 °F 68% 29.94 in 10.0 mi West 4.6 mph - N/A Rain Light Rain
1:56 PM 69.4 °F 58.3 °F 68% 29.94 in 10.0 mi West 8.1 mph - N/A Rain Light Rain
2:09 PM 69.8 °F 57.2 °F 64% 29.94 in 10.0 mi WSW 9.2 mph - N/A   Mostly Cloudy
2:56 PM 67.3 °F 55.8 °F 66% 29.93 in 10.0 mi WSW 5.8 mph - N/A   Overcast
3:56 PM 69.1 °F 58.8 °F 70% 29.94 in 10.0 mi WSW 6.9 mph - N/A   Mostly Cloudy
4:15 PM 68.0 °F 59.0 °F 73% 29.94 in 9.0 mi SSW 6.9 mph - N/A Rain Light Rain Showers
4:20 PM 66.2 °F 60.8 °F 83% 29.95 in 4.0 mi SSE 6.9 mph - N/A Rain Rain Showers
4:30 PM 62.6 °F 57.2 °F 82% 29.96 in 5.0 mi SE 5.8 mph - N/A Rain Rain Showers
4:56 PM 62.6 °F 58.6 °F 87% 29.97 in 10.0 mi Calm Calm - N/A Rain Light Rain Showers
4:57 PM 62.6 °F 59.0 °F 88% 29.97 in 10.0 mi Calm Calm - N/A   Clear
5:17 PM 64.4 °F 60.8 °F 88% 29.95 in 10.0 mi Calm Calm - N/A   Mostly Cloudy
5:22 PM 64.4 °F 59.0 °F 83% 29.95 in 10.0 mi Calm Calm - N/A Rain Light Rain Showers
5:37 PM 64.4 °F 60.8 °F 88% 29.97 in 10.0 mi South 3.5 mph - N/A Rain Light Rain Showers
5:43 PM 64.4 °F 60.8 °F 88% 29.97 in 10.0 mi Calm Calm - N/A   Mostly Cloudy
5:56 PM 63.1 °F 59.4 °F 87% 29.97 in 10.0 mi SSW 3.5 mph - N/A   Scattered Clouds
6:16 PM 62.6 °F 60.8 °F 94% 29.98 in 10.0 mi Calm Calm - N/A   Mostly Cloudy
6:26 PM 62.6 °F 60.8 °F 94% 29.98 in 10.0 mi Calm Calm - N/A   Scattered Clouds
6:31 PM 62.6 °F 60.8 °F 94% 29.98 in 10.0 mi West 3.5 mph - N/A   Mostly Cloudy
6:51 PM 60.8 °F 60.8 °F 100% 29.97 in 10.0 mi Calm Calm - N/A   Mostly Cloudy
6:56 PM 60.4 °F 59.7 °F 97% 29.97 in 10.0 mi Calm Calm - N/A   Mostly Cloudy
7:06 PM 60.8 °F 59.0 °F 94% 29.97 in 1.8 mi Calm Calm - N/A   Mostly Cloudy
7:16 PM 60.8 °F 60.8 °F 100% 29.97 in 3.0 mi Calm Calm - N/A   Mostly Cloudy
7:26 PM 60.8 °F 60.8 °F 100% 29.97 in 4.0 mi Calm Calm - N/A   Mostly Cloudy
7:36 PM 60.8 °F 60.8 °F 100% 29.96 in 7.0 mi Calm Calm - N/A   Overcast
7:56 PM 60.4 °F 59.9 °F 98% 30.31 in 4.0 mi Calm Calm - N/A   Overcast